Hiyodori — JD2366 — position and weather

sailwx.info

Track history (hours):
 
Tides and Currents Weather Stations Pressure Air Temp Water Temp Dewpoint Dewpoint Depression Visibility Wind Speed Wind Dir Waves Ship Positions

Hiyodori

Last reported at 2014-Jul-26 04:33 UTC. Time now 2014-Jul-26 05:06 UTC.
Position N 35°24' E 139°41'.

Length 88 m; draft 3.6 m.

Type: Cargo ship. MMSI: 431000132.

Date/timePositionNaut miles runAvg speedWind from/ knotsBaromVisibWave heightAir tempDewpointWater temp
2014-Jul-26 04:33N 35°24' E 139°41'0 0.0
2014-Jul-26 03:33N 35°24' E 139°41'0 0.0
2014-Jul-26 02:33N 35°24' E 139°41'0 0.0
2014-Jul-26 01:33N 35°24' E 139°41'3 3.1
2014-Jul-26 00:33N 35°21' E 139°42'1110.5
2014-Jul-25 23:33N 35°11' E 139°47'1211.8
2014-Jul-25 22:33N 35°01' E 139°40'1312.9
2014-Jul-25 21:33N 34°54' E 139°27'226 6.3
2014-Jul-24 09:32N 34°01' E 135°00'1212.3
2014-Jul-24 08:32N 34°14' E 134°59'1111.2
2014-Jul-24 07:33N 34°24' E 135°03'1312.6
2014-Jul-24 06:32N 34°33' E 135°15'1110.9
2014-Jul-24 05:33N 34°39' E 135°26'0 0.1
2014-Jul-24 04:31N 34°39' E 135°26'0 0.0
2014-Jul-24 02:24N 34°39' E 135°26'6 7.4
2014-Jul-24 01:33N 34°37' E 135°18'4 3.9
2014-Jul-24 00:33N 34°41' E 135°16'2 1.7
2014-Jul-23 23:33N 34°40' E 135°14'0 0.4
2014-Jul-23 22:33N 34°40' E 135°14'0 0.0
2014-Jul-23 21:33N 34°40' E 135°14'0 0.0
2014-Jul-23 20:33N 34°40' E 135°14'0 0.0
2014-Jul-23 19:33N 34°40' E 135°14'0 0.0
2014-Jul-23 18:33N 34°40' E 135°14'0 0.0
2014-Jul-23 17:33N 34°40' E 135°14'0 0.0
2014-Jul-23 16:33N 34°40' E 135°14'0 0.0
2014-Jul-23 15:33N 34°40' E 135°14'0 0.0
2014-Jul-23 14:33N 34°40' E 135°14'0 0.0
2014-Jul-23 13:33N 34°40' E 135°14'0 0.0
2014-Jul-23 12:33N 34°40' E 135°14'0 0.0
2014-Jul-23 11:33N 34°40' E 135°14'0 0.0
2014-Jul-23 10:33N 34°40' E 135°14'8 7.8
2014-Jul-23 09:33N 34°32' E 135°12'1413.8
2014-Jul-23 08:31N 34°20' E 135°02'1212.9
2014-Jul-23 07:33N 34°08' E 135°00'21110.0
2014-Jul-22 10:29N 34°52' E 139°10'1011.0
2014-Jul-22 09:33N 34°58' E 139°21'9 9.3
2014-Jul-22 08:33N 35°02' E 139°31'1010.2
2014-Jul-22 07:33N 35°07' E 139°41'1010.1
2014-Jul-22 06:33N 35°17' E 139°45'8 8.1
2014-Jul-22 05:33N 35°24' E 139°41'0 0.0
2014-Jul-22 04:33N 35°24' E 139°41'1 1.4
2014-Jul-22 03:33N 35°23' E 139°41'0 0.2
2014-Jul-22 02:33N 35°23' E 139°41'9 9.3
2014-Jul-22 01:33N 35°15' E 139°47'1211.8
2014-Jul-22 00:33N 35°03' E 139°44'1312.8
2014-Jul-21 23:33N 34°56' E 139°31'50 8.3
2014-Jul-21 17:33N 35°02' E 138°31'  
2014-Jul-19 08:25N 34°50' E 139°09'1010.8
2014-Jul-19 07:31N 34°57' E 139°16'1010.4
2014-Jul-19 06:33N 35°02' E 139°28'1111.0
2014-Jul-19 05:33N 35°06' E 139°40'1111.2
2014-Jul-19 04:34N 35°16' E 139°45'8 8.4
2014-Jul-19 03:34N 35°23' E 139°40'1 0.9
2014-Jul-19 02:34N 35°24' E 139°41'0 0.0
2014-Jul-19 01:34N 35°24' E 139°41'0 0.0
2014-Jul-19 00:34N 35°24' E 139°41'9 8.8
2014-Jul-18 23:33N 35°16' E 139°46'1010.5
2014-Jul-18 22:33N 35°06' E 139°45'1110.8
2014-Jul-18 21:33N 34°57' E 139°37'235 6.0
2014-Jul-17 06:34N 33°59' E 135°01'1211.8
2014-Jul-17 05:33N 34°11' E 134°59'1111.1
2014-Jul-17 04:33N 34°22' E 135°00'1211.7
2014-Jul-17 03:32N 34°29' E 135°11'1111.1
2014-Jul-17 02:33N 34°39' E 135°18'3 2.5
2014-Jul-17 01:33N 34°41' E 135°16'0 0.0
2014-Jul-17 00:34N 34°41' E 135°16'0 0.0
2014-Jul-16 23:31N 34°41' E 135°16'7 7.4
2014-Jul-16 22:33N 34°34' E 135°14'1312.4
2014-Jul-16 21:33N 34°24' E 135°04'1111.0
2014-Jul-16 20:34N 34°14' E 134°60'1212.0
2014-Jul-16 19:33N 34°02' E 135°01'  
Track history (hours):
 
Tides and Currents Weather Stations Pressure Air Temp Water Temp Dewpoint Dewpoint Depression Visibility Wind Speed Wind Dir Waves Ship Positions

Hiyodori

Last reported at 2014-Jul-26 04:33 UTC. Time now 2014-Jul-26 05:06 UTC.
Position N 35°24' E 139°41'.

Length 88 m; draft 3.6 m.

Type: Cargo ship. MMSI: 431000132.

Date/timePositionNaut miles runAvg speedWind from/ knotsBaromVisibWave heightAir tempDewpointWater temp
2014-Jul-26 04:33N 35°24' E 139°41'0 0.0
2014-Jul-26 03:33N 35°24' E 139°41'0 0.0
2014-Jul-26 02:33N 35°24' E 139°41'0 0.0
2014-Jul-26 01:33N 35°24' E 139°41'3 3.1
2014-Jul-26 00:33N 35°21' E 139°42'1110.5
2014-Jul-25 23:33N 35°11' E 139°47'1211.8
2014-Jul-25 22:33N 35°01' E 139°40'1312.9
2014-Jul-25 21:33N 34°54' E 139°27'226 6.3
2014-Jul-24 09:32N 34°01' E 135°00'1212.3
2014-Jul-24 08:32N 34°14' E 134°59'1111.2
2014-Jul-24 07:33N 34°24' E 135°03'1312.6
2014-Jul-24 06:32N 34°33' E 135°15'1110.9
2014-Jul-24 05:33N 34°39' E 135°26'0 0.1
2014-Jul-24 04:31N 34°39' E 135°26'0 0.0
2014-Jul-24 02:24N 34°39' E 135°26'6 7.4
2014-Jul-24 01:33N 34°37' E 135°18'4 3.9
2014-Jul-24 00:33N 34°41' E 135°16'2 1.7
2014-Jul-23 23:33N 34°40' E 135°14'0 0.4
2014-Jul-23 22:33N 34°40' E 135°14'0 0.0
2014-Jul-23 21:33N 34°40' E 135°14'0 0.0
2014-Jul-23 20:33N 34°40' E 135°14'0 0.0
2014-Jul-23 19:33N 34°40' E 135°14'0 0.0
2014-Jul-23 18:33N 34°40' E 135°14'0 0.0
2014-Jul-23 17:33N 34°40' E 135°14'0 0.0
2014-Jul-23 16:33N 34°40' E 135°14'0 0.0
2014-Jul-23 15:33N 34°40' E 135°14'0 0.0
2014-Jul-23 14:33N 34°40' E 135°14'0 0.0
2014-Jul-23 13:33N 34°40' E 135°14'0 0.0
2014-Jul-23 12:33N 34°40' E 135°14'0 0.0
2014-Jul-23 11:33N 34°40' E 135°14'0 0.0
2014-Jul-23 10:33N 34°40' E 135°14'8 7.8
2014-Jul-23 09:33N 34°32' E 135°12'1413.8
2014-Jul-23 08:31N 34°20' E 135°02'1212.9
2014-Jul-23 07:33N 34°08' E 135°00'21110.0
2014-Jul-22 10:29N 34°52' E 139°10'1011.0
2014-Jul-22 09:33N 34°58' E 139°21'9 9.3
2014-Jul-22 08:33N 35°02' E 139°31'1010.2
2014-Jul-22 07:33N 35°07' E 139°41'1010.1
2014-Jul-22 06:33N 35°17' E 139°45'8 8.1
2014-Jul-22 05:33N 35°24' E 139°41'0 0.0
2014-Jul-22 04:33N 35°24' E 139°41'1 1.4
2014-Jul-22 03:33N 35°23' E 139°41'0 0.2
2014-Jul-22 02:33N 35°23' E 139°41'9 9.3
2014-Jul-22 01:33N 35°15' E 139°47'1211.8
2014-Jul-22 00:33N 35°03' E 139°44'1312.8
2014-Jul-21 23:33N 34°56' E 139°31'50 8.3
2014-Jul-21 17:33N 35°02' E 138°31'  
2014-Jul-19 08:25N 34°50' E 139°09'1010.8
2014-Jul-19 07:31N 34°57' E 139°16'1010.4
2014-Jul-19 06:33N 35°02' E 139°28'1111.0
2014-Jul-19 05:33N 35°06' E 139°40'1111.2
2014-Jul-19 04:34N 35°16' E 139°45'8 8.4
2014-Jul-19 03:34N 35°23' E 139°40'1 0.9
2014-Jul-19 02:34N 35°24' E 139°41'0 0.0
2014-Jul-19 01:34N 35°24' E 139°41'0 0.0
2014-Jul-19 00:34N 35°24' E 139°41'9 8.8
2014-Jul-18 23:33N 35°16' E 139°46'1010.5
2014-Jul-18 22:33N 35°06' E 139°45'1110.8
2014-Jul-18 21:33N 34°57' E 139°37'235 6.0
2014-Jul-17 06:34N 33°59' E 135°01'1211.8
2014-Jul-17 05:33N 34°11' E 134°59'1111.1
2014-Jul-17 04:33N 34°22' E 135°00'1211.7
2014-Jul-17 03:32N 34°29' E 135°11'1111.1
2014-Jul-17 02:33N 34°39' E 135°18'3 2.5
2014-Jul-17 01:33N 34°41' E 135°16'0 0.0
2014-Jul-17 00:34N 34°41' E 135°16'0 0.0
2014-Jul-16 23:31N 34°41' E 135°16'7 7.4
2014-Jul-16 22:33N 34°34' E 135°14'1312.4
2014-Jul-16 21:33N 34°24' E 135°04'1111.0
2014-Jul-16 20:34N 34°14' E 134°60'1212.0
2014-Jul-16 19:33N 34°02' E 135°01'  

Dump ship's entire track history